カタログに戻る

STARLINK-5757

運用中通信VLEO
NORAD 55580·PAYLOAD·🇺🇸 United States

打ち上げ Feb 12, 2023 から Cape Canaveral Space Force Station

Loading…

次のパス (今後24時間)

TLE

最新Source: CelesTrak SupGP

元期: Sep 15, 2026, 02:14 UTC

1 55580C 23020M   26258.09354167  .00005525  00000+0  20015-3 0  2583
2 55580  43.0015 349.8972 0001642 262.9652 170.7087 15.27570114    19

AllMySatでSTARLINK-5757をリアルタイム追跡

Download on the App Store